Погода в Борилове

Россия / Орловская область     53°21′56″N   35°58′18″E
темп.,
°C
ветер,
м/с
пор.,
м/с
влажн.,
%
обл.,
%
осадки,
мм/ч
давл.,
гПа
погр.,
м
12 апреля, пн
пн1200:00+7всв3667100 0.0 103097
03:00+5всв41072100 0.0 1031176
06:00+5всв51368100 0.0 1030301
09:00+6в61372100 0.1 1029475
12:00+11в5773100 0.1 1027571
15:00+14в6867100 0.1 1026744
18:00+14в4872100 0.0 1024252
21:00+11в41285100 0.0 1024226
13 апреля, вт
вт1300:00+10юв514765 0.0 1024248
03:00+8юв4108375 0.0 1024161
06:00+8юв4686100 0.0 102493
09:00+13юв51064100 0.0 1024323
12:00+18юв794584 0.0 1023996
15:00+20юв793868 0.0 10221795
18:00+18юв5104499 0.0 1021326
21:00+13юв4105916 0.0 1021158
14 апреля, ср
ср1400:00+10ю227561 0.0 102216
03:00+9вюв347969 0.0 102152
06:00+8юв34845 0.0 102056
09:00+13юв4665100 0.0 1020305
12:00+18юв583771 0.0 10181207
15:00+19ююв6836100 0.0 10171774
18:00+17юв474585 0.0 1016209
21:00+13юз3671100 0.0 1017154
15 апреля, чт
чт1500:00+12юз1185100 0.1 101711
03:00+10вюв2286100 0.1 101722
06:00+9юв238898 0.0 101732
09:00+13в2371100 0.0 1017197
12:00+17всв3355100 0.0 1016903
15:00+18вюв343791 0.0 10151503
18:00+17в3544100 0.0 1014134
21:00+13всв3653100 0.0 101393
16 апреля, пт
пт1600:00+12всв3566100 0.0 101374
03:00+11в3569100 0.0 101284
06:00+10всв3576100 0.0 101293
09:00+10вюв2683100 0.3 1013189
12:00+14в586690 0.4 1013772
15:00+16в785767 1.5 10131522
18:00+14всв3670100 1.8 1013609
21:00+11всв81685100 8.9 10161181